Weather History for Pensacola NAS, FL

Change the Weather History Date:

Saturday, September 21, 2013

  Actual Average Record
Temperature  
Mean Temperature 26 °C -  
Max Temperature 29 °C 28 °C 36 °C (1997)
Min Temperature 23 °C 19 °C 13 °C (2006)
Cooling Degree Days 12    
Growing Degree Days 28 (Base 50)    
Moisture  
Dew Point 24 °C    
Average Humidity 90    
Maximum Humidity 100    
Minimum Humidity 76    
Precipitation  
Precipitation 14.73 mm - - ()
Sea Level Pressure  
Sea Level Pressure 1009 hPa    
Wind  
Wind Speed 14 km/h (WSW)    
Max Wind Speed 35 km/h    
Max Gust Speed 50 km/h    
Visibility 13 kilometers    
Events Rain , Thunderstorm    
Averages and records for this station are not official NWS values.
T = Trace of Precipitation, MM = Missing Value Source: NWS Daily Summary

Daily Weather History Graph

Daily Weather History Graph

Search for Another Location

Airport:

Trip Planner

Search our weather history database for the weather conditions in past years. The results will help you decide how hot, cold, wet, or windy it might be!

Date:

Astronomy

Sep. 21, 2013 Rise Set
Actual Time 6:37 AM CDT 6:46 PM CDT
Civil Twilight 6:13 AM CDT 7:10 PM CDT
Nautical Twilight 5:45 AM CDT 7:38 PM CDT
Astronomical Twilight 5:17 AM CDT 8:06 PM CDT
Moon 8:11 PM CDT (9/21) 8:42 AM CDT (9/21)
Length of Visible Light 12h 57m
Length of Day
12h 09m
Waning Gibbous, 94% of the Moon is Illuminated
Sep 21
Waning Gibbous
Sep 26
Last Quarter
Oct 4
New
Oct 11
First Quarter
Oct 18
Full

Hourly Weather History & Observations

Time (CDT) Temp. Heat Index Dew Point Humidity Pressure Visibility Wind Dir Wind Speed Gust Speed Precip Events Conditions
12:38 AM 28.0 °C 31.9 °C 24.0 °C 79% 1010.7 hPa 16.1 km South 20.4 km/h / 5.7 m/s - N/A   Mostly Cloudy
12:45 AM 28.0 °C 31.9 °C 24.0 °C 79% 1010.7 hPa 16.1 km South 20.4 km/h / 5.7 m/s - N/A   Scattered Clouds
12:56 AM 27.8 °C 31.1 °C 23.3 °C 76% 1010.8 hPa 16.1 km South 22.2 km/h / 6.2 m/s - N/A   Scattered Clouds
1:56 AM 27.2 °C 30.4 °C 23.9 °C 82% 1010.2 hPa 16.1 km South 20.4 km/h / 5.7 m/s - N/A   Partly Cloudy
2:56 AM 27.2 °C 30.4 °C 23.9 °C 82% 1009.6 hPa 16.1 km South 20.4 km/h / 5.7 m/s - N/A   Partly Cloudy
3:46 AM 28.0 °C 31.9 °C 24.0 °C 79% 1009.0 hPa 16.1 km South 22.2 km/h / 6.2 m/s - N/A   Mostly Cloudy
3:56 AM 27.2 °C 30.4 °C 23.9 °C 82% 1009.2 hPa 16.1 km South 24.1 km/h / 6.7 m/s - N/A   Mostly Cloudy
4:08 AM 27.0 °C 30.1 °C 24.0 °C 84% 1009.0 hPa 16.1 km South 24.1 km/h / 6.7 m/s - N/A   Scattered Clouds
4:56 AM 26.1 °C - 23.9 °C 88% 1009.0 hPa 11.3 km South 20.4 km/h / 5.7 m/s 40.7 km/h / 11.3 m/s 0.5 mm Rain Light Rain
5:45 AM 27.0 °C 30.1 °C 24.0 °C 84% 1009.0 hPa 16.1 km SW 35.2 km/h / 9.8 m/s 50.0 km/h / 13.9 m/s 0.0 mm Thunderstorm Thunderstorm
5:56 AM 25.0 °C - 22.8 °C 88% 1009.4 hPa 8.0 km SW 29.6 km/h / 8.2 m/s 46.3 km/h / 12.9 m/s 0.8 mm Rain , Thunderstorm Light Thunderstorms and Rain
6:15 AM 25.0 °C - 23.0 °C 89% 1009.0 hPa 16.1 km SSW 13.0 km/h / 3.6 m/s - 0.3 mm   Scattered Clouds
6:56 AM 25.6 °C - 23.3 °C 87% 1009.2 hPa 16.1 km SSW 13.0 km/h / 3.6 m/s - 0.3 mm   Scattered Clouds
7:56 AM 26.7 °C 29.9 °C 25.0 °C 90% 1009.3 hPa 16.1 km SW 9.3 km/h / 2.6 m/s - N/A   Scattered Clouds
8:56 AM 25.6 °C - 23.3 °C 87% 1009.7 hPa 16.1 km West 9.3 km/h / 2.6 m/s - 0.0 mm   Scattered Clouds
9:04 AM 26.0 °C - 24.0 °C 89% 1009.4 hPa 16.1 km SW 9.3 km/h / 2.6 m/s - N/A   Overcast
9:08 AM 26.0 °C - 24.0 °C 89% 1009.4 hPa 6.4 km WSW 11.1 km/h / 3.1 m/s - 0.0 mm Rain Rain
9:17 AM 26.0 °C - 24.0 °C 89% 1009.4 hPa 9.7 km Calm Calm - 0.0 mm Rain Light Rain
9:27 AM 26.0 °C - 24.0 °C 89% 1009.4 hPa 16.1 km Calm Calm - 0.0 mm   Overcast
9:56 AM 26.1 °C - 24.4 °C 90% 1010.0 hPa 16.1 km Calm Calm - 0.0 mm   Overcast
10:56 AM 27.8 °C 32.3 °C 25.0 °C 85% 1009.9 hPa 16.1 km SSW 7.4 km/h / 2.1 m/s - N/A   Overcast
11:56 AM 28.3 °C 33.2 °C 25.0 °C 82% 1009.0 hPa 16.1 km SW 13.0 km/h / 3.6 m/s - N/A   Overcast
12:35 PM 27.0 °C 30.1 °C 24.0 °C 84% 1008.7 hPa 2.8 km South 20.4 km/h / 5.7 m/s 37.0 km/h / 10.3 m/s 1.5 mm Rain Rain
12:38 PM 27.0 °C 30.1 °C 24.0 °C 84% 1008.7 hPa 4.0 km SSW 16.7 km/h / 4.6 m/s 37.0 km/h / 10.3 m/s 1.5 mm Rain Rain
12:40 PM 27.0 °C 30.6 °C 25.0 °C 89% 1008.7 hPa 6.4 km SSW 16.7 km/h / 4.6 m/s 37.0 km/h / 10.3 m/s 1.5 mm Rain Rain
12:45 PM 27.0 °C 30.1 °C 24.0 °C 84% 1008.7 hPa 11.3 km SW 9.3 km/h / 2.6 m/s - 1.5 mm   Overcast
12:56 PM 27.2 °C 30.4 °C 23.9 °C 82% 1008.7 hPa 11.3 km West 7.4 km/h / 2.1 m/s - 1.5 mm   Overcast
1:03 PM 27.0 °C 29.6 °C 23.0 °C 79% 1008.4 hPa 16.1 km NW 11.1 km/h / 3.1 m/s - N/A Thunderstorm Thunderstorm
1:12 PM 24.0 °C - 23.0 °C 94% 1008.7 hPa 16.1 km WNW 18.5 km/h / 5.1 m/s 31.5 km/h / 8.7 m/s 0.0 mm Rain , Thunderstorm Light Thunderstorms and Rain
1:19 PM 24.0 °C - 23.0 °C 94% 1009.0 hPa 1.6 km WNW 18.5 km/h / 5.1 m/s 31.5 km/h / 8.7 m/s 2.0 mm Rain , Thunderstorm Heavy Thunderstorms and Rain
1:30 PM 23.0 °C - 23.0 °C 100% 1008.4 hPa 4.8 km NW 9.3 km/h / 2.6 m/s - 5.1 mm Rain Rain
1:39 PM 24.0 °C - 23.0 °C 94% 1008.4 hPa 16.1 km NW 11.1 km/h / 3.1 m/s - 5.1 mm Rain Light Rain
1:56 PM 23.9 °C - 23.3 °C 96% 1008.7 hPa 16.1 km Variable 7.4 km/h / 2.1 m/s - 5.1 mm Rain Light Rain
2:03 PM 24.0 °C - 23.0 °C 94% 1008.4 hPa 1.6 km Variable 5.6 km/h / 1.5 m/s - 0.5 mm Rain Heavy Rain
2:13 PM 24.0 °C - 23.0 °C 94% 1008.4 hPa 2.8 km West 9.3 km/h / 2.6 m/s - 2.0 mm Rain Heavy Rain
2:22 PM 23.0 °C - 23.0 °C 100% 1008.4 hPa 2.8 km WSW 7.4 km/h / 2.1 m/s - 5.6 mm Rain Heavy Rain
2:24 PM 23.0 °C - 23.0 °C 100% 1008.0 hPa 2.4 km West 11.1 km/h / 3.1 m/s - 5.8 mm Rain Heavy Rain
2:36 PM 24.0 °C - 23.0 °C 94% 1008.0 hPa 8.0 km WSW 7.4 km/h / 2.1 m/s - 6.3 mm Rain Light Rain
2:56 PM 23.9 °C - 23.9 °C 100% 1008.0 hPa 16.1 km West 5.6 km/h / 1.5 m/s - 6.3 mm Rain Light Rain
3:39 PM 25.0 °C - 24.0 °C 94% 1007.7 hPa 9.7 km Calm Calm - 0.0 mm Rain Light Rain
3:56 PM 25.0 °C - 24.4 °C 96% 1007.6 hPa 11.3 km NW 5.6 km/h / 1.5 m/s - 0.3 mm Rain Light Rain
4:56 PM 25.0 °C - 24.4 °C 96% 1006.9 hPa 9.7 km Calm Calm - 0.0 mm Rain Light Rain
5:25 PM 25.0 °C - 24.0 °C 94% 1006.7 hPa 16.1 km North 5.6 km/h / 1.5 m/s - 0.0 mm   Overcast
5:29 PM 25.0 °C - 24.0 °C 94% 1006.7 hPa 16.1 km NNW 5.6 km/h / 1.5 m/s - 0.0 mm   Overcast
5:36 PM 25.0 °C - 24.0 °C 94% 1006.7 hPa 16.1 km NNE 5.6 km/h / 1.5 m/s - 0.0 mm   Mostly Cloudy
5:42 PM 25.0 °C - 24.0 °C 94% 1006.7 hPa 16.1 km North 5.6 km/h / 1.5 m/s - 0.0 mm   Mostly Cloudy
5:49 PM 25.0 °C - 24.0 °C 94% 1006.7 hPa 16.1 km North 7.4 km/h / 2.1 m/s - 0.0 mm Rain Light Rain
5:56 PM 25.0 °C - 24.4 °C 96% 1007.0 hPa 16.1 km NNE 7.4 km/h / 2.1 m/s - 0.0 mm Rain Light Rain
6:56 PM 24.4 °C - 23.9 °C 97% 1007.4 hPa 16.1 km Calm Calm - 0.0 mm Rain Light Rain
7:56 PM 24.4 °C - 23.9 °C 97% 1007.7 hPa 16.1 km Calm Calm - 0.0 mm Rain Light Rain
8:56 PM 23.9 °C - 23.9 °C 100% 1008.1 hPa 16.1 km Calm Calm - 0.0 mm   Mostly Cloudy
9:56 PM 23.9 °C - 23.9 °C 100% 1007.9 hPa 16.1 km Calm Calm - 0.0 mm   Mostly Cloudy
10:56 PM 23.9 °C - 23.9 °C 100% 1007.9 hPa 16.1 km Calm Calm - 0.0 mm   Mostly Cloudy
11:56 PM 23.9 °C - 23.9 °C 100% 1007.8 hPa 16.1 km Calm Calm - 0.0 mm   Partly Cloudy